Location: Baumgartsau
(48.4586°N, 14.0864°E)
Time: 02:02:14
(UTC+00:00)

SL-16 R/B - Pass Details

Date: 10 August 2020
Orbit: 843 x 845 km, 71.0° (Epoch: 26 September)

Event Time Altitude Azimuth Distance (km) Brightness Sun altitude
Rises 21:05:26 0° 330° (NNW) 3,416 7.0 -20.7°
Reaches altitude 10° 21:07:54 10° 329° (NNW) 2,477 5.8 -20.9°
Maximum altitude 21:13:34 75° 245° (WSW) 879 2.2 -21.3°
Enters shadow 21:15:27 43° 171° (S) 1,167 2.5 -21.5°
